Location: Aragüita
(10.0436°N, 67.8028°W)
Time: 14:53:21
(UTC+00:00)

COSMO-SKYMED 1 - Pass Details

Date: 14 April 2024
Orbit: 621 x 623 km, 97.9° (Epoch: 28 May)

Event Time Altitude Azimuth Distance (km) Brightness Sun altitude
Rises 09:39:30 0° 153° (SSE) 2,894 6.2 -10.9°
Reaches altitude 10° 09:41:48 10° 145° (SE) 1,988 5.5 -10.3°
Maximum altitude 09:45:48 38° 77° (ENE) 959 4.3 -9.4°
Drops below altitude 10° 09:49:48 10° 9° (N) 1,987 5.4 -8.4°
Sets 09:52:06 0° 2° (N) 2,893 6.2 -7.8°
